Overview Statistics Trail Chart Weather Telemetry Raw packets
 

This is the latest recevied weather packets stored in our database for station/object W5ITZ. If no packets are shown the sender has not sent any weather packets the latest 10 day(s).

<< 1 2 3 4 5 >>
Time Temp. Humidity Pressure Rain* Wind** Luminosity Snow
1788228079 28.33° C 77% 1013.9 hPa 0 mm - 0 W/m² -
1788227774 28.33° C 77% 1013.9 hPa 0 mm - 0 W/m² -
1788227474 28.89° C 76% 1013.8 hPa 0 mm - 0 W/m² -
1788227169 28.89° C 75% 1013.4 hPa 0 mm - 0 W/m² -
1788226865 28.89° C 75% 1013.6 hPa 0 mm - 0 W/m² -
1788226561 28.89° C 74% 1013.4 hPa 0 mm - 0 W/m² -
1788226256 28.89° C 74% 1013.5 hPa 0 mm - 0 W/m² -
1788225956 29.44° C 74% 1013.6 hPa 0 mm - 0 W/m² -
1788225651 29.44° C 73% 1013.6 hPa 0 mm - 0 W/m² -
1788225348 29.44° C 72% 1013.6 hPa 0 mm - 0 W/m² -
1788225045 30° C 71% 1013.7 hPa 0 mm - 0 W/m² -
1788224741 30° C 71% 1013.9 hPa 0 mm - 0 W/m² -
1788224440 30° C 71% 1013.4 hPa 0 mm - 1 W/m² -
1788224135 30° C 71% 1013.6 hPa 0 mm - 2 W/m² -
1788223830 30° C 71% 1013.5 hPa 0 mm - 4 W/m² -
1788223529 30.56° C 70% 1013.3 hPa 0 mm - 6 W/m² -
1788223224 30.56° C 70% 1013.5 hPa 0 mm - 10 W/m² -
1788222920 30.56° C 70% 1013.6 hPa 0 mm - 15 W/m² -
1788222618 31.11° C 69% 1013.4 hPa 0 mm - 20 W/m² -
1788222318 31.11° C 69% 1013.4 hPa 0 mm - 25 W/m² -
1788222013 31.11° C 68% 1013.4 hPa 0 mm - 30 W/m² -
1788221708 31.11° C 68% 1013.4 hPa 0 mm - 35 W/m² -
1788221403 31.11° C 67% 1013.5 hPa 0 mm - 37 W/m² -
1788221097 31.11° C 67% 1013.3 hPa 0 mm - 47 W/m² -
1788220796 31.11° C 69% 1013.3 hPa 0 mm - 51 W/m² -

* Rain latest hour (hover to see other rain measurements)
** Current wind speed in m/s (hover to see current wind gust speed)